Overview Statistics Trail Chart Weather Telemetry Raw packets
 

This is the latest recevied weather packets stored in our database for station/object HP1MRA-15. If no packets are shown the sender has not sent any weather packets the latest 10 day(s).

<< 33 34 35 36 37 38 39 >>
Time Temp. Humidity Pressure Rain* Wind** Luminosity Snow
1788457457 36.67° C 59% 1001.9 hPa 0 mm - - -
1788457156 37.22° C 59% 1002 hPa 0 mm - - -
1788457155 37.22° C 60% 1002 hPa 0 mm - - -
1788456857 37.22° C 60% 1002.1 hPa 0 mm - - -
1788456556 37.78° C 58% 1002.3 hPa 0 mm - - -
1788456257 37.78° C 59% 1002.3 hPa 0 mm - - -
1788456255 37.78° C 60% 1002.3 hPa 0 mm - - -
1788455956 37.22° C 61% 1002.3 hPa 0 mm - - -
1788455656 37.78° C 59% 1002.4 hPa 0 mm - - -
1788455357 37.78° C 59% 1002.5 hPa 0 mm - - -
1788455355 37.78° C 59% 1002.6 hPa 0 mm - - -
1788455056 37.78° C 58% 1002.6 hPa 0 mm - - -
1788454757 37.78° C 61% 1002.7 hPa 0 mm - - -
1788454455 37.78° C 62% 1002.8 hPa 0 mm - - -
1788454156 38.89° C 60% 1002.7 hPa 0 mm - - -
1788453856 38.33° C 64% 1002.9 hPa 0 mm - - -
1788453556 38.33° C 62% 1002.9 hPa 0 mm - - -
1788453554 38.33° C 62% 1002.9 hPa 0 mm - - -
1788453255 38.33° C 64% 1003 hPa 0 mm - - -
1788452956 37.78° C 65% 1003.1 hPa 0 mm - - -
1788452657 36.67° C 62% 1003.1 hPa 0 mm - - -
1788452655 36.67° C 63% 1003.1 hPa 0 mm - - -
1788452356 36.11° C 64% 1003.3 hPa 0 mm - - -
1788452056 36.67° C 63% 1003.3 hPa 0 mm - - -
1788451756 37.78° C 62% 1003.4 hPa 0 mm - - -

* Rain latest hour (hover to see other rain measurements)
** Current wind speed in m/s (hover to see current wind gust speed)